Location: Добрич
(43.6638°N, 27.9002°E)
Time: 05:26:09
(UTC+03:00)

ISS - Pass Details

Date: 21 April 2026
Orbit: 414 x 424 km, 51.6° (Epoch: 15 May)

Event Time Altitude Azimuth Distance (km) Brightness Sun altitude
Exits shadow 05:42:36 - 253° (WSW) 1,609 -1.5 -6.5°
Reaches altitude 10° 05:42:53 10° 254° (WSW) 1,495 -1.6 -6.5°
Maximum altitude 05:46:11 54° 333° (NNW) 515 -3.3 -5.9°
Drops below altitude 10° 05:49:31 10° 52° (NE) 1,508 0.6 -5.4°
Sets 05:51:39 0° 57° (ENE) 2,377 2.2 -5.0°
